| time (UTC) | temp C | wind direction | speed KPH | gust KPH | rain 1hr cm | rain 24hr cm | rain mn cm | humidity % | barometer mb |
| 20260509135203 | 10 | 143 | 0.0 | 0.0 | 0.00 | 0.00 | 0.00 | 86 | 1008.3 |
| 20260509134659 | 10 | 145 | 1.6 | 1.6 | 0.00 | 0.00 | 0.00 | 86 | 1008.3 |
| 20260509134157 | 10 | 141 | 0.0 | 0.0 | 0.00 | 0.00 | 0.00 | 86 | 1008.5 |
| 20260509133654 | 10 | 145 | 0.0 | 0.0 | 0.00 | 0.00 | 0.00 | 86 | 1008.6 |
| 20260509133151 | 10 | 147 | 1.6 | 1.6 | 0.00 | 0.00 | 0.00 | 87 | 1008.9 |
| 20260509132649 | 10 | 138 | 1.6 | 1.6 | 0.00 | 0.00 | 0.00 | 87 | 1008.8 |
| 20260509132147 | 10 | 153 | 0.0 | 1.6 | 0.00 | 0.00 | 0.00 | 87 | 1008.7 |
| 20260509131643 | 10 | 144 | 0.0 | 0.0 | 0.00 | 0.00 | 0.00 | 87 | 1008.7 |
| 20260509131140 | 9 | 142 | 0.0 | 0.0 | 0.00 | 0.00 | 0.00 | 88 | 1008.7 |
| 20260509130636 | 9 | 140 | 0.0 | 0.0 | 0.00 | 0.00 | 0.00 | 88 | 1008.9 |
| 20260509130132 | 9 | 144 | 0.0 | 0.0 | 0.00 | 0.00 | 0.00 | 88 | 1008.8 |
| 20260509125629 | 9 | 138 | 0.0 | 0.0 | 0.00 | 0.00 | 0.00 | 88 | 1008.8 |
| 20260509125126 | 8 | 142 | 0.0 | 0.0 | 0.00 | 0.00 | 0.00 | 87 | 1008.7 |
| 20260509124622 | 8 | 144 | 0.0 | 1.6 | 0.00 | 0.00 | 0.00 | 87 | 1008.3 |
| 20260509124119 | 8 | 148 | 0.0 | 1.6 | 0.00 | 0.00 | 0.00 | 87 | 1008.4 |
| 20260509123617 | 8 | 146 | 0.0 | 0.0 | 0.00 | 0.00 | 0.00 | 87 | 1008.4 |
| 20260509123114 | 8 | 151 | 0.0 | 0.0 | 0.00 | 0.00 | 0.00 | 87 | 1008.4 |
| 20260509122610 | 8 | 145 | 0.0 | 0.0 | 0.00 | 0.00 | 0.00 | 87 | 1008.4 |
| 20260509122107 | 8 | 145 | 0.0 | 0.0 | 0.00 | 0.00 | 0.00 | 87 | 1008.4 |
| 20260509121603 | 8 | 151 | 0.0 | 0.0 | 0.00 | 0.00 | 0.00 | 86 | 1008.7 |
| 20260509121101 | 7 | 151 | 0.0 | 0.0 | 0.00 | 0.00 | 0.00 | 86 | 1008.6 |
| 20260509120559 | 7 | 152 | 0.0 | 0.0 | 0.00 | 0.00 | 0.00 | 86 | 1008.8 |
| 20260509120057 | 7 | 143 | 0.0 | 0.0 | 0.00 | 0.00 | 0.00 | 86 | 1008.9 |
| 20260509115554 | 7 | 145 | 0.0 | 0.0 | 0.00 | 0.00 | 0.00 | 86 | 1008.9 |
| 20260509115052 | 7 | 145 | 0.0 | 0.0 | 0.00 | 0.00 | 0.00 | 86 | 1008.9 |
| 20260509114549 | 7 | 150 | 0.0 | 0.0 | 0.00 | 0.00 | 0.00 | 86 | 1009.0 |
| 20260509114048 | 7 | 151 | 0.0 | 0.0 | 0.00 | 0.00 | 0.00 | 85 | 1009.1 |
| 20260509113546 | 7 | 150 | 0.0 | 0.0 | 0.00 | 0.00 | 0.00 | 85 | 1009.1 |
| 20260509113044 | 7 | 150 | 0.0 | 0.0 | 0.00 | 0.00 | 0.00 | 84 | 1009.0 |
| 20260509112540 | 7 | 151 | 0.0 | 0.0 | 0.00 | 0.00 | 0.00 | 84 | 1008.9 |
| 20260509112037 | 7 | 150 | 0.0 | 0.0 | 0.00 | 0.00 | 0.00 | 84 | 1008.9 |
| 20260509111534 | 7 | 150 | 0.0 | 0.0 | 0.00 | 0.00 | 0.00 | 84 | 1008.9 |
| 20260509111031 | 7 | 150 | 0.0 | 0.0 | 0.00 | 0.00 | 0.00 | 84 | 1008.9 |
| 20260509110528 | 7 | 150 | 0.0 | 0.0 | 0.00 | 0.00 | 0.00 | 84 | 1008.9 |
| 20260509110025 | 7 | 150 | 0.0 | 0.0 | 0.00 | 0.00 | 0.00 | 85 | 1008.9 |
| 20260509105523 | 7 | 150 | 0.0 | 0.0 | 0.00 | 0.00 | 0.00 | 84 | 1009.0 |
| 20260509105020 | 7 | 150 | 0.0 | 0.0 | 0.00 | 0.00 | 0.00 | 84 | 1008.8 |
| 20260509104517 | 7 | 150 | 0.0 | 0.0 | 0.00 | 0.00 | 0.00 | 84 | 1009.0 |
| 20260509104014 | 7 | 152 | 0.0 | 0.0 | 0.00 | 0.00 | 0.00 | 84 | 1008.9 |
| 20260509103512 | 6 | 151 | 0.0 | 0.0 | 0.00 | 0.00 | 0.00 | 84 | 1008.8 |
| 20260509103010 | 6 | 152 | 0.0 | 0.0 | 0.00 | 0.00 | 0.00 | 84 | 1008.9 |
| 20260509102507 | 6 | 152 | 0.0 | 0.0 | 0.00 | 0.00 | 0.00 | 83 | 1008.9 |
| 20260509102003 | 6 | 152 | 0.0 | 0.0 | 0.00 | 0.00 | 0.00 | 82 | 1008.8 |
| 20260509101500 | 6 | 152 | 0.0 | 0.0 | 0.00 | 0.00 | 0.00 | 82 | 1008.9 |
| 20260509100957 | 6 | 152 | 0.0 | 0.0 | 0.00 | 0.00 | 0.00 | 80 | 1009.0 |
| 20260509100454 | 6 | 152 | 0.0 | 0.0 | 0.00 | 0.00 | 0.00 | 80 | 1008.9 |
| 20260509095951 | 6 | 152 | 0.0 | 1.6 | 0.00 | 0.00 | 0.00 | 80 | 1008.8 |
| 20260509095447 | 6 | 153 | 0.0 | 1.6 | 0.00 | 0.00 | 0.00 | 79 | 1008.6 |
| 20260509094945 | 6 | 152 | 0.0 | 0.0 | 0.00 | 0.00 | 0.00 | 80 | 1008.7 |
| 20260509094441 | 6 | 152 | 0.0 | 0.0 | 0.00 | 0.00 | 0.00 | 79 | 1008.7 |
| 20260509093939 | 6 | 152 | 0.0 | 0.0 | 0.00 | 0.00 | 0.00 | 79 | 1008.6 |
| 20260509093436 | 6 | 152 | 0.0 | 0.0 | 0.00 | 0.00 | 0.00 | 78 | 1008.5 |
| 20260509092934 | 6 | 152 | 0.0 | 0.0 | 0.00 | 0.00 | 0.00 | 78 | 1008.4 |
| 20260509092432 | 6 | 152 | 0.0 | 0.0 | 0.00 | 0.00 | 0.00 | 78 | 1008.5 |
| 20260509091930 | 6 | 152 | 0.0 | 0.0 | 0.00 | 0.00 | 0.00 | 76 | 1008.5 |
| 20260509091427 | 6 | 152 | 0.0 | 0.0 | 0.00 | 0.00 | 0.00 | 76 | 1008.7 |
| 20260509090924 | 6 | 152 | 0.0 | 0.0 | 0.00 | 0.00 | 0.00 | 76 | 1008.8 |
| 20260509090421 | 6 | 152 | 0.0 | 0.0 | 0.00 | 0.00 | 0.00 | 76 | 1008.7 |
| 20260509085919 | 6 | 152 | 0.0 | 0.0 | 0.00 | 0.00 | 0.00 | 75 | 1008.8 |
| 20260509085416 | 6 | 152 | 0.0 | 0.0 | 0.00 | 0.00 | 0.00 | 75 | 1009.0 |
| 20260509084912 | 6 | 152 | 0.0 | 0.0 | 0.00 | 0.00 | 0.00 | 75 | 1009.0 |
| 20260509084409 | 6 | 153 | 0.0 | 0.0 | 0.00 | 0.00 | 0.00 | 75 | 1009.2 |
| 20260509083906 | 6 | 153 | 0.0 | 0.0 | 0.00 | 0.00 | 0.00 | 75 | 1009.3 |
| 20260509083403 | 6 | 153 | 0.0 | 0.0 | 0.00 | 0.00 | 0.00 | 75 | 1009.3 |
| 20260509082900 | 6 | 153 | 0.0 | 0.0 | 0.00 | 0.00 | 0.00 | 75 | 1009.3 |
| 20260509082357 | 6 | 153 | 0.0 | 0.0 | 0.00 | 0.00 | 0.00 | 74 | 1009.3 |
| 20260509081854 | 6 | 153 | 0.0 | 0.0 | 0.00 | 0.00 | 0.00 | 73 | 1009.3 |
| 20260509081351 | 6 | 153 | 0.0 | 0.0 | 0.00 | 0.00 | 0.00 | 74 | 1009.2 |
| 20260509080849 | 6 | 153 | 0.0 | 0.0 | 0.00 | 0.00 | 0.00 | 75 | 1009.5 |
| 20260509080346 | 6 | 153 | 0.0 | 0.0 | 0.00 | 0.00 | 0.00 | 74 | 1009.3 |
| 20260509075844 | 6 | 153 | 0.0 | 0.0 | 0.00 | 0.00 | 0.00 | 74 | 1009.5 |
| 20260509075341 | 6 | 153 | 0.0 | 0.0 | 0.00 | 0.00 | 0.00 | 74 | 1009.4 |
| 20260509074838 | 6 | 153 | 0.0 | 0.0 | 0.00 | 0.00 | 0.00 | 74 | 1009.6 |
| 20260509074336 | 6 | 153 | 0.0 | 0.0 | 0.00 | 0.00 | 0.00 | 74 | 1009.6 |
| 20260509073832 | 6 | 153 | 0.0 | 0.0 | 0.00 | 0.00 | 0.00 | 74 | 1009.5 |
| 20260509073329 | 6 | 153 | 0.0 | 0.0 | 0.00 | 0.00 | 0.00 | 74 | 1009.4 |
| 20260509072825 | 6 | 153 | 0.0 | 0.0 | 0.00 | 0.00 | 0.00 | 74 | 1009.7 |
| 20260509072322 | 6 | 154 | 0.0 | 0.0 | 0.00 | 0.00 | 0.00 | 77 | 1009.7 |
| 20260509071819 | 6 | 154 | 0.0 | 0.0 | 0.00 | 0.00 | 0.00 | 75 | 1009.5 |
| 20260509071316 | 6 | 154 | 0.0 | 0.0 | 0.00 | 0.00 | 0.00 | 72 | 1009.5 |
| 20260509070813 | 6 | 153 | 0.0 | 1.6 | 0.00 | 0.00 | 0.00 | 70 | 1009.7 |
| 20260509070310 | 6 | 153 | 0.0 | 0.0 | 0.00 | 0.00 | 0.00 | 71 | 1009.6 |
| 20260509065806 | 6 | 153 | 0.0 | 0.0 | 0.00 | 0.00 | 0.00 | 69 | 1009.5 |
| 20260509065305 | 6 | 153 | 0.0 | 0.0 | 0.00 | 0.00 | 0.00 | 69 | 1009.6 |
| 20260509064758 | 6 | 153 | 1.6 | 1.6 | 0.00 | 0.00 | 0.00 | 68 | 1009.7 |
| 20260509064255 | 6 | 153 | 1.6 | 1.6 | 0.00 | 0.00 | 0.00 | 67 | 1009.5 |
| 20260509063753 | 6 | 153 | 0.0 | 1.6 | 0.00 | 0.00 | 0.00 | 67 | 1009.5 |
| 20260509063249 | 6 | 153 | 1.6 | 1.6 | 0.00 | 0.00 | 0.00 | 69 | 1009.6 |
| 20260509062747 | 6 | 154 | 0.0 | 1.6 | 0.00 | 0.00 | 0.00 | 70 | 1009.8 |
| 20260509062243 | 6 | 154 | 0.0 | 0.0 | 0.00 | 0.00 | 0.00 | 71 | 1009.8 |
| 20260509061740 | 6 | 154 | 0.0 | 0.0 | 0.00 | 0.00 | 0.00 | 71 | 1010.0 |
| 20260509061238 | 6 | 154 | 0.0 | 1.6 | 0.00 | 0.00 | 0.00 | 71 | 1009.8 |
| 20260509060736 | 6 | 154 | 0.0 | 0.0 | 0.00 | 0.00 | 0.00 | 74 | 1010.1 |
| 20260509060232 | 6 | 154 | 0.0 | 0.0 | 0.00 | 0.00 | 0.00 | 76 | 1010.1 |
| 20260509055727 | 6 | 154 | 0.0 | 0.0 | 0.00 | 0.00 | 0.00 | 76 | 1010.2 |
| 20260509055224 | 6 | 154 | 0.0 | 1.6 | 0.00 | 0.00 | 0.00 | 73 | 1010.5 |
| 20260509054720 | 6 | 154 | 0.0 | 0.0 | 0.00 | 0.00 | 0.00 | 73 | 1010.4 |
| 20260509054217 | 6 | 154 | 1.6 | 1.6 | 0.00 | 0.00 | 0.00 | 74 | 1010.4 |
| 20260509053716 | 6 | 154 | 0.0 | 1.6 | 0.00 | 0.00 | 0.00 | 74 | 1010.4 |
| 20260509053212 | 6 | 154 | 0.0 | 0.0 | 0.00 | 0.00 | 0.00 | 75 | 1010.7 |
| 20260509052710 | 6 | 154 | 0.0 | 0.0 | 0.00 | 0.00 | 0.00 | 79 | 1010.9 |
| 20260509052208 | 6 | 154 | 0.0 | 0.0 | 0.00 | 0.00 | 0.00 | 76 | 1010.9 |
| 20260509051705 | 6 | 154 | 0.0 | 0.0 | 0.00 | 0.00 | 0.00 | 76 | 1011.2 |
| 20260509051203 | 6 | 154 | 0.0 | 0.0 | 0.00 | 0.00 | 0.00 | 78 | 1010.8 |
| 20260509050700 | 6 | 154 | 0.0 | 0.0 | 0.00 | 0.00 | 0.00 | 76 | 1010.9 |
| 20260509050156 | 6 | 154 | 0.0 | 0.0 | 0.00 | 0.00 | 0.00 | 77 | 1011.0 |
| 20260509045653 | 6 | 154 | 0.0 | 0.0 | 0.00 | 0.00 | 0.00 | 77 | 1010.7 |
| 20260509045150 | 6 | 154 | 0.0 | 0.0 | 0.00 | 0.00 | 0.00 | 77 | 1010.9 |
| 20260509044647 | 6 | 154 | 0.0 | 0.0 | 0.00 | 0.00 | 0.00 | 77 | 1011.0 |
| 20260509044145 | 6 | 154 | 0.0 | 0.0 | 0.00 | 0.00 | 0.00 | 76 | 1011.3 |
| 20260509043641 | 6 | 155 | 0.0 | 0.0 | 0.00 | 0.00 | 0.00 | 76 | 1011.0 |
| 20260509043137 | 6 | 155 | 0.0 | 0.0 | 0.00 | 0.00 | 0.00 | 77 | 1011.2 |
| 20260509042634 | 6 | 154 | 0.0 | 0.0 | 0.00 | 0.00 | 0.00 | 77 | 1011.0 |
| 20260509042129 | 6 | 154 | 0.0 | 0.0 | 0.00 | 0.00 | 0.00 | 74 | 1011.1 |
| 20260509041626 | 6 | 154 | 0.0 | 0.0 | 0.00 | 0.00 | 0.00 | 75 | 1011.1 |
| 20260509041124 | 6 | 155 | 0.0 | 0.0 | 0.00 | 0.00 | 0.00 | 78 | 1011.2 |
| 20260509040622 | 5 | 155 | 0.0 | 0.0 | 0.00 | 0.00 | 0.00 | 75 | 1011.1 |
| 20260509040119 | 5 | 155 | 0.0 | 0.0 | 0.00 | 0.00 | 0.00 | 76 | 1010.9 |
| 20260509035615 | 5 | 155 | 0.0 | 0.0 | 0.00 | 0.25 | 0.25 | 77 | 1011.1 |
| 20260509035112 | 5 | 155 | 0.0 | 0.0 | 0.00 | 0.25 | 0.25 | 76 | 1011.2 |
| 20260509034610 | 5 | 154 | 0.0 | 0.0 | 0.00 | 0.25 | 0.25 | 79 | 1011.3 |
| 20260509034107 | 5 | 154 | 0.0 | 0.0 | 0.00 | 0.25 | 0.25 | 78 | 1011.1 |
| 20260509033604 | 5 | 154 | 0.0 | 0.0 | 0.00 | 0.25 | 0.25 | 79 | 1011.2 |
| 20260509033101 | 5 | 154 | 0.0 | 0.0 | 0.00 | 0.25 | 0.25 | 79 | 1011.1 |
| 20260509032558 | 5 | 155 | 1.6 | 1.6 | 0.00 | 0.25 | 0.25 | 79 | 1011.2 |
| 20260509032055 | 5 | 155 | 0.0 | 0.0 | 0.00 | 0.25 | 0.25 | 79 | 1011.0 |
| 20260509031553 | 5 | 154 | 0.0 | 0.0 | 0.00 | 0.25 | 0.25 | 79 | 1011.1 |
| 20260509031050 | 5 | 154 | 1.6 | 1.6 | 0.00 | 0.25 | 0.25 | 78 | 1011.1 |
| 20260509030548 | 5 | 154 | 0.0 | 1.6 | 0.00 | 0.25 | 0.25 | 78 | 1011.1 |
| 20260509030044 | 6 | 154 | 0.0 | 0.0 | 0.00 | 0.25 | 0.25 | 77 | 1011.0 |
| 20260509025541 | 6 | 154 | 0.0 | 0.0 | 0.00 | 0.25 | 0.25 | 77 | 1011.3 |
| 20260509025036 | 6 | 154 | 1.6 | 1.6 | 0.00 | 0.25 | 0.25 | 76 | 1011.4 |
| 20260509024532 | 6 | 154 | 1.6 | 1.6 | 0.00 | 0.25 | 0.25 | 76 | 1011.2 |
| 20260509024029 | 6 | 154 | 0.0 | 0.0 | 0.00 | 0.25 | 0.25 | 76 | 1011.3 |
| 20260509023527 | 6 | 153 | 0.0 | 1.6 | 0.00 | 0.25 | 0.25 | 76 | 1011.2 |
| 20260509023023 | 6 | 149 | 1.6 | 1.6 | 0.00 | 0.25 | 0.25 | 77 | 1011.4 |
| 20260509022520 | 6 | 142 | 0.0 | 0.0 | 0.00 | 0.25 | 0.25 | 78 | 1011.5 |
| 20260509022018 | 6 | 142 | 0.0 | 0.0 | 0.00 | 0.25 | 0.25 | 78 | 1011.5 |
| 20260509021514 | 6 | 141 | 0.0 | 0.0 | 0.00 | 0.25 | 0.25 | 77 | 1011.4 |
| 20260509021011 | 6 | 141 | 0.0 | 0.0 | 0.00 | 0.25 | 0.25 | 75 | 1011.3 |
| 20260509020510 | 6 | 141 | 0.0 | 0.0 | 0.00 | 0.25 | 0.25 | 74 | 1011.3 |
| 20260509020006 | 6 | 141 | 0.0 | 0.0 | 0.00 | 0.25 | 0.25 | 71 | 1011.3 |
| 20260509015505 | 7 | 141 | 0.0 | 0.0 | 0.00 | 0.25 | 0.25 | 69 | 1011.2 |
| 20260509015002 | 7 | 141 | 0.0 | 0.0 | 0.00 | 0.25 | 0.25 | 67 | 1011.5 |
| 20260509014459 | 7 | 141 | 0.0 | 0.0 | 0.00 | 0.25 | 0.25 | 64 | 1011.2 |
| 20260509013954 | 7 | 141 | 0.0 | 0.0 | 0.00 | 0.25 | 0.25 | 62 | 1011.3 |
| 20260509013452 | 7 | 141 | 0.0 | 0.0 | 0.00 | 0.25 | 0.25 | 61 | 1011.3 |
| 20260509012947 | 7 | 141 | 0.0 | 0.0 | 0.00 | 0.25 | 0.25 | 61 | 1011.0 |
| 20260509012444 | 7 | 141 | 0.0 | 0.0 | 0.00 | 0.25 | 0.25 | 60 | 1011.1 |
| 20260509011941 | 7 | 141 | 0.0 | 0.0 | 0.00 | 0.25 | 0.25 | 60 | 1011.1 |
| 20260509011439 | 7 | 141 | 0.0 | 0.0 | 0.00 | 0.25 | 0.25 | 60 | 1011.0 |
| 20260509010936 | 7 | 141 | 0.0 | 0.0 | 0.00 | 0.25 | 0.25 | 60 | 1010.9 |
| 20260509010434 | 7 | 141 | 0.0 | 0.0 | 0.00 | 0.25 | 0.25 | 59 | 1010.7 |
| 20260509005930 | 7 | 141 | 0.0 | 0.0 | 0.00 | 0.25 | 0.25 | 61 | 1010.7 |
| 20260509005428 | 7 | 141 | 0.0 | 0.0 | 0.00 | 0.25 | 0.25 | 60 | 1010.4 |
| 20260509004923 | 8 | 141 | 0.0 | 0.0 | 0.00 | 0.25 | 0.25 | 59 | 1010.5 |
| 20260509004420 | 8 | 141 | 0.0 | 0.0 | 0.00 | 0.25 | 0.25 | 59 | 1010.3 |
| 20260509003918 | 8 | 141 | 0.0 | 0.0 | 0.00 | 0.25 | 0.25 | 58 | 1010.3 |
| 20260509003415 | 8 | 141 | 0.0 | 0.0 | 0.00 | 0.25 | 0.25 | 58 | 1010.5 |
| 20260509002911 | 8 | 141 | 0.0 | 0.0 | 0.00 | 0.25 | 0.25 | 56 | 1010.3 |
| 20260509002410 | 8 | 141 | 0.0 | 0.0 | 0.00 | 0.25 | 0.25 | 55 | 1010.3 |
| 20260509001907 | 8 | 141 | 0.0 | 0.0 | 0.00 | 0.25 | 0.25 | 55 | 1010.4 |
| 20260509001403 | 8 | 141 | 0.0 | 0.0 | 0.00 | 0.25 | 0.25 | 54 | 1010.4 |
| 20260509000900 | 8 | 141 | 0.0 | 0.0 | 0.00 | 0.25 | 0.25 | 55 | 1010.3 |
| 20260509000358 | 8 | 141 | 0.0 | 0.0 | 0.00 | 0.25 | 0.25 | 54 | 1010.1 |
| 20260508235853 | 9 | 141 | 0.0 | 0.0 | 0.00 | 0.25 | 0.25 | 55 | 1010.3 |
| 20260508235351 | 9 | 141 | 0.0 | 0.0 | 0.00 | 0.25 | 0.25 | 54 | 1010.2 |
| 20260508234848 | 9 | 141 | 0.0 | 0.0 | 0.00 | 0.25 | 0.25 | 53 | 1010.1 |
| 20260508234344 | 9 | 141 | 0.0 | 0.0 | 0.00 | 0.25 | 0.25 | 54 | 1010.0 |
| 20260508233843 | 10 | 141 | 0.0 | 0.0 | 0.00 | 0.25 | 0.25 | 53 | 1010.1 |
| 20260508233342 | 10 | 141 | 1.6 | 1.6 | 0.00 | 0.25 | 0.25 | 54 | 1010.1 |
| 20260508232838 | 10 | 141 | 0.0 | 1.6 | 0.00 | 0.25 | 0.25 | 54 | 1009.9 |
| 20260508232334 | 10 | 141 | 0.0 | 0.0 | 0.00 | 0.25 | 0.25 | 53 | 1010.0 |
| 20260508231833 | 10 | 141 | 0.0 | 0.0 | 0.00 | 0.25 | 0.25 | 52 | 1010.2 |
| 20260508231329 | 11 | 141 | 0.0 | 0.0 | 0.00 | 0.25 | 0.25 | 48 | 1010.1 |
| 20260508230826 | 10 | 141 | 0.0 | 0.0 | 0.00 | 0.25 | 0.25 | 49 | 1010.3 |
| 20260508230322 | 10 | 141 | 0.0 | 0.0 | 0.00 | 0.25 | 0.25 | 49 | 1010.0 |
| 20260508225820 | 10 | 141 | 0.0 | 1.6 | 0.00 | 0.25 | 0.25 | 48 | 1009.9 |
| 20260508225316 | 10 | 152 | 0.0 | 0.0 | 0.00 | 0.25 | 0.25 | 54 | 1009.9 |
| 20260508224815 | 10 | 145 | 0.0 | 0.0 | 0.00 | 0.25 | 0.25 | 52 | 1009.9 |
| 20260508224312 | 10 | 146 | 0.0 | 0.0 | 0.00 | 0.25 | 0.25 | 51 | 1009.9 |
| 20260508223809 | 10 | 143 | 1.6 | 1.6 | 0.00 | 0.25 | 0.25 | 49 | 1010.1 |
| 20260508223307 | 11 | 142 | 1.6 | 1.6 | 0.00 | 0.25 | 0.25 | 49 | 1010.2 |
| 20260508222804 | 11 | 171 | 0.0 | 0.0 | 0.00 | 0.25 | 0.25 | 49 | 1010.2 |
| 20260508222301 | 11 | 145 | 0.0 | 1.6 | 0.00 | 0.25 | 0.25 | 51 | 1010.0 |
| 20260508221758 | 11 | 126 | 0.0 | 0.0 | 0.00 | 0.25 | 0.25 | 48 | 1010.1 |
| 20260508221253 | 11 | 178 | 0.0 | 1.6 | 0.00 | 0.25 | 0.25 | 47 | 1010.0 |
| 20260508220750 | 11 | 139 | 1.6 | 3.2 | 0.00 | 0.25 | 0.25 | 52 | 1010.2 |
| 20260508220247 | 11 | 123 | 0.0 | 1.6 | 0.00 | 0.25 | 0.25 | 48 | 1010.1 |
| 20260508215742 | 11 | 75 | 1.6 | 3.2 | 0.00 | 0.25 | 0.25 | 48 | 1010.2 |
| 20260508215239 | 10 | 153 | 0.0 | 0.0 | 0.00 | 0.25 | 0.25 | 52 | 1010.5 |
| 20260508214737 | 11 | 166 | 0.0 | 1.6 | 0.00 | 0.25 | 0.25 | 51 | 1010.2 |
| 20260508214234 | 11 | 166 | 3.2 | 4.8 | 0.00 | 0.25 | 0.25 | 48 | 1010.5 |
| 20260508213730 | 11 | 186 | 3.2 | 4.8 | 0.00 | 0.25 | 0.25 | 48 | 1010.5 |
| 20260508213227 | 11 | 164 | 1.6 | 1.6 | 0.00 | 0.25 | 0.25 | 52 | 1010.3 |
| 20260508212724 | 10 | 164 | 0.0 | 0.0 | 0.00 | 0.25 | 0.25 | 49 | 1010.5 |
| 20260508212220 | 10 | 182 | 0.0 | 1.6 | 0.00 | 0.25 | 0.25 | 53 | 1010.3 |
| 20260508211715 | 10 | 183 | 1.6 | 3.2 | 0.00 | 0.25 | 0.25 | 52 | 1010.4 |
| 20260508211211 | 10 | 167 | 1.6 | 1.6 | 0.00 | 0.25 | 0.25 | 54 | 1010.7 |
| 20260508210709 | 10 | 157 | 0.0 | 0.0 | 0.00 | 0.25 | 0.25 | 54 | 1010.2 |
| 20260508210206 | 10 | 175 | 1.6 | 1.6 | 0.00 | 0.25 | 0.25 | 54 | 1010.4 |
| 20260508205703 | 10 | 175 | 1.6 | 3.2 | 0.00 | 0.25 | 0.25 | 57 | 1010.7 |
| 20260508205159 | 10 | 189 | 3.2 | 3.2 | 0.00 | 0.25 | 0.25 | 57 | 1010.4 |
| 20260508204655 | 10 | 183 | 1.6 | 3.2 | 0.00 | 0.25 | 0.25 | 53 | 1010.7 |
| 20260508204151 | 10 | 182 | 1.6 | 3.2 | 0.00 | 0.25 | 0.25 | 53 | 1010.7 |
| 20260508203648 | 10 | 200 | 3.2 | 4.8 | 0.00 | 0.25 | 0.25 | 56 | 1010.4 |
| 20260508203144 | 10 | 170 | 1.6 | 1.6 | 0.00 | 0.25 | 0.25 | 54 | 1010.5 |
| 20260508202640 | 10 | 160 | 3.2 | 3.2 | 0.00 | 0.25 | 0.25 | 56 | 1010.7 |
| 20260508202138 | 10 | 172 | 3.2 | 3.2 | 0.00 | 0.25 | 0.25 | 54 | 1010.8 |
| 20260508201634 | 10 | 170 | 1.6 | 1.6 | 0.00 | 0.25 | 0.25 | 56 | 1010.8 |
| 20260508201131 | 10 | 219 | 3.2 | 3.2 | 0.00 | 0.25 | 0.25 | 58 | 1010.8 |
| 20260508200628 | 10 | 203 | 6.4 | 8.0 | 0.00 | 0.25 | 0.25 | 56 | 1010.9 |
| 20260508200124 | 10 | 232 | 4.8 | 4.8 | 0.00 | 0.25 | 0.25 | 57 | 1011.0 |
| 20260508195621 | 10 | 239 | 4.8 | 4.8 | 0.00 | 0.25 | 0.25 | 55 | 1010.9 |
| 20260508195117 | 11 | 203 | 3.2 | 3.2 | 0.00 | 0.25 | 0.25 | 59 | 1011.3 |
| 20260508194614 | 10 | 193 | 1.6 | 1.6 | 0.00 | 0.25 | 0.25 | 60 | 1011.2 |
| 20260508194111 | 10 | 203 | 3.2 | 3.2 | 0.00 | 0.25 | 0.25 | 62 | 1011.2 |
| 20260508193608 | 10 | 204 | 1.6 | 3.2 | 0.00 | 0.25 | 0.25 | 61 | 1011.3 |
| 20260508193104 | 10 | 251 | 6.4 | 9.7 | 0.00 | 0.25 | 0.25 | 58 | 1011.2 |
| 20260508192601 | 10 | 239 | 4.8 | 4.8 | 0.00 | 0.25 | 0.25 | 59 | 1011.1 |
| 20260508192058 | 10 | 234 | 4.8 | 4.8 | 0.00 | 0.25 | 0.25 | 61 | 1011.2 |
| 20260508191555 | 10 | 186 | 3.2 | 3.2 | 0.00 | 0.25 | 0.25 | 64 | 1011.3 |
| 20260508191052 | 9 | 174 | 1.6 | 1.6 | 0.00 | 0.25 | 0.25 | 65 | 1011.3 |
| 20260508190549 | 8 | 174 | 0.0 | 0.0 | 0.00 | 0.25 | 0.25 | 66 | 1011.2 |
| 20260508190045 | 8 | 194 | 3.2 | 4.8 | 0.00 | 0.25 | 0.25 | 64 | 1011.3 |
| 20260508185542 | 9 | 175 | 0.0 | 0.0 | 0.00 | 0.25 | 0.25 | 66 | 1011.3 |
| 20260508185040 | 9 | 176 | 3.2 | 3.2 | 0.00 | 0.25 | 0.25 | 71 | 1011.2 |
| 20260508184537 | 8 | 196 | 1.6 | 3.2 | 0.00 | 0.25 | 0.25 | 70 | 1011.2 |
| 20260508184034 | 8 | 237 | 8.0 | 9.7 | 0.00 | 0.25 | 0.25 | 69 | 1011.6 |
| 20260508183530 | 9 | 220 | 3.2 | 4.8 | 0.00 | 0.25 | 0.25 | 68 | 1011.5 |
| 20260508183026 | 8 | 194 | 3.2 | 3.2 | 0.00 | 0.25 | 0.25 | 71 | 1011.4 |
| 20260508182523 | 8 | 184 | 1.6 | 1.6 | 0.00 | 0.25 | 0.25 | 68 | 1011.5 |
| 20260508182019 | 8 | 259 | 8.0 | 9.7 | 0.00 | 0.25 | 0.25 | 70 | 1011.7 |
| 20260508181515 | 7 | 182 | 1.6 | 1.6 | 0.00 | 0.25 | 0.25 | 71 | 1011.6 |
| 20260508181013 | 7 | 167 | 4.8 | 4.8 | 0.00 | 0.25 | 0.25 | 71 | 1011.8 |
| 20260508180509 | 7 | 211 | 3.2 | 3.2 | 0.00 | 0.25 | 0.25 | 74 | 1012.0 |
| 20260508180005 | 8 | 187 | 3.2 | 4.8 | 0.00 | 0.25 | 0.25 | 71 | 1011.6 |
| 20260508175502 | 7 | 197 | 3.2 | 4.8 | 0.00 | 0.25 | 0.25 | 74 | 1011.5 |
| 20260508174959 | 8 | 161 | 1.6 | 1.6 | 0.00 | 0.25 | 0.25 | 73 | 1011.7 |
| 20260508174457 | 7 | 186 | 1.6 | 1.6 | 0.00 | 0.25 | 0.25 | 73 | 1011.8 |
| 20260508173954 | 7 | 185 | 1.6 | 1.6 | 0.00 | 0.25 | 0.25 | 74 | 1011.6 |
| 20260508173451 | 7 | 169 | 3.2 | 3.2 | 0.00 | 0.25 | 0.25 | 74 | 1011.7 |
| 20260508172946 | 7 | 183 | 3.2 | 3.2 | 0.00 | 0.25 | 0.25 | 75 | 1011.9 |
| 20260508172444 | 7 | 182 | 1.6 | 1.6 | 0.00 | 0.25 | 0.25 | 76 | 1011.9 |
| 20260508171940 | 7 | 154 | 3.2 | 4.8 | 0.00 | 0.25 | 0.25 | 77 | 1012.0 |
| 20260508171437 | 7 | 212 | 3.2 | 3.2 | 0.00 | 0.25 | 0.25 | 77 | 1012.0 |
| 20260508170933 | 7 | 201 | 1.6 | 1.6 | 0.00 | 0.25 | 0.25 | 77 | 1011.9 |
| 20260508170431 | 6 | 199 | 1.6 | 1.6 | 0.00 | 0.25 | 0.25 | 76 | 1012.1 |
| 20260508165928 | 6 | 219 | 3.2 | 3.2 | 0.00 | 0.25 | 0.25 | 76 | 1012.0 |
| 20260508165426 | 6 | 203 | 3.2 | 3.2 | 0.00 | 0.25 | 0.25 | 79 | 1012.1 |
| 20260508164921 | 6 | 205 | 1.6 | 3.2 | 0.00 | 0.25 | 0.25 | 79 | 1012.2 |
| 20260508164418 | 6 | 198 | 4.8 | 4.8 | 0.00 | 0.25 | 0.25 | 79 | 1012.0 |
| 20260508163916 | 6 | 225 | 3.2 | 4.8 | 0.00 | 0.25 | 0.25 | 79 | 1012.0 |
| 20260508163413 | 6 | 186 | 1.6 | 1.6 | 0.00 | 0.25 | 0.25 | 79 | 1012.1 |
| 20260508162908 | 6 | 165 | 0.0 | 0.0 | 0.00 | 0.25 | 0.25 | 82 | 1012.0 |
| 20260508162406 | 6 | 188 | 3.2 | 3.2 | 0.00 | 0.25 | 0.25 | 81 | 1012.2 |
| 20260508161903 | 6 | 219 | 1.6 | 3.2 | 0.00 | 0.25 | 0.25 | 82 | 1012.0 |
| 20260508161400 | 6 | 162 | 1.6 | 1.6 | 0.00 | 0.25 | 0.25 | 82 | 1011.9 |
| 20260508160857 | 6 | 175 | 1.6 | 3.2 | 0.00 | 0.25 | 0.25 | 81 | 1012.1 |
| 20260508160356 | 6 | 189 | 4.8 | 4.8 | 0.00 | 0.25 | 0.25 | 83 | 1012.0 |
| 20260508155852 | 6 | 191 | 3.2 | 3.2 | 0.00 | 0.25 | 0.25 | 83 | 1012.1 |
| 20260508155349 | 6 | 177 | 3.2 | 3.2 | 0.00 | 0.25 | 0.25 | 84 | 1012.2 |
| 20260508154846 | 5 | 184 | 4.8 | 4.8 | 0.00 | 0.25 | 0.25 | 82 | 1012.1 |
| 20260508154344 | 5 | 172 | 1.6 | 1.6 | 0.00 | 0.25 | 0.25 | 85 | 1012.0 |
| 20260508153840 | 5 | 206 | 1.6 | 1.6 | 0.00 | 0.25 | 0.25 | 83 | 1012.0 |
| 20260508153337 | 5 | 224 | 4.8 | 4.8 | 0.00 | 0.25 | 0.25 | 84 | 1012.0 |
| 20260508152833 | 5 | 207 | 3.2 | 3.2 | 0.00 | 0.25 | 0.25 | 86 | 1012.0 |
| 20260508152330 | 5 | 195 | 3.2 | 3.2 | 0.00 | 0.25 | 0.25 | 88 | 1012.3 |
| 20260508151826 | 5 | 173 | 1.6 | 1.6 | 0.00 | 0.25 | 0.25 | 89 | 1012.2 |
| 20260508151324 | 4 | 173 | 3.2 | 3.2 | 0.00 | 0.25 | 0.25 | 90 | 1012.2 |
| 20260508150819 | 4 | 200 | 3.2 | 3.2 | 0.00 | 0.25 | 0.25 | 90 | 1012.2 |
| 20260508150317 | 4 | 176 | 1.6 | 3.2 | 0.00 | 0.25 | 0.25 | 90 | 1012.3 |
| 20260508145813 | 4 | 188 | 3.2 | 3.2 | 0.00 | 0.25 | 0.25 | 91 | 1012.2 |
| 20260508145309 | 3 | 182 | 3.2 | 3.2 | 0.00 | 0.25 | 0.25 | 91 | 1012.1 |
| 20260508144806 | 3 | 178 | 3.2 | 3.2 | 0.00 | 0.25 | 0.25 | 91 | 1012.2 |
| 20260508144304 | 3 | 170 | 1.6 | 1.6 | 0.13 | 0.25 | 0.25 | 91 | 1012.6 |
| 20260508143801 | 3 | 224 | 6.4 | 8.0 | 0.13 | 0.25 | 0.25 | 91 | 1012.3 |
| 20260508143258 | 3 | 213 | 3.2 | 3.2 | 0.00 | 0.23 | 0.23 | 91 | 1012.4 |
| 20260508142754 | 3 | 226 | 3.2 | 3.2 | 0.00 | 0.23 | 0.23 | 91 | 1012.4 |
| 20260508142252 | 3 | 196 | 3.2 | 3.2 | 0.00 | 0.23 | 0.23 | 91 | 1012.2 |
| 20260508141748 | 3 | 209 | 4.8 | 4.8 | 0.00 | 0.23 | 0.23 | 91 | 1012.1 |
| 20260508141245 | 3 | 188 | 3.2 | 3.2 | 0.00 | 0.23 | 0.23 | 90 | 1012.0 |
| 20260508140743 | 3 | 210 | 6.4 | 8.0 | 0.00 | 0.23 | 0.23 | 90 | 1012.0 |
| 20260508140239 | 4 | 206 | 3.2 | 3.2 | 0.00 | 0.23 | 0.23 | 90 | 1012.2 |
| 20260508135735 | 4 | 189 | 3.2 | 3.2 | 0.00 | 0.23 | 0.23 | 91 | 1011.8 |